Regional Weather Roundup
Issued by NWS

Home | Current Version | Previous Version | Graphics & Text | Print | Product List | Glossary On
Versions: 1 2 3 4 5 6 7 8 9 10 11 12 13 14 15 16 17 18 19 20 21 22 23 24 25 26 27 28 29 30 31 32 33 34 35 36 37 38 39 40 41 42 43 44 45 46 47 48 49 50
000
ASUS43 KFSD 281502
RWRSD

WEATHER ROUNDUP FOR SOUTH DAKOTA
NATIONAL WEATHER SERVICE SIOUX FALLS SD
1000 AM CDT SAT MAR 28 2015

NOTE: "FAIR" INDICATES FEW OR NO CLOUDS BELOW 12,000 FEET WITH NO
SIGNIFICANT WEATHER AND/OR OBSTRUCTIONS TO VISIBILITY.


SDZ001>005-009-010-012>017-281600-
NORTHWEST AND NORTH CENTRAL SOUTH DAKOTA

CITY           SKY/WX    TMP DP  RH WIND       PRES   REMARKS
BUFFALO          N/A     48  36  63 S14       29.78F
FAITH            N/A     44  33  65 S21       29.88F
MOBRIDGE       SUNNY     34  29  82 SE15      29.93F WCI  24
$$

SDZ012>016-024>037-041>051-057-063-072>074-281600-
SOUTHWEST AND SOUTH CENTRAL SOUTH DAKOTA

CITY           SKY/WX    TMP DP  RH WIND       PRES   REMARKS
RAPID CTY ARPT SUNNY     49  35  58 SE6       29.88F
PIERRE         MOSUNNY   32  29  88 SE14      29.98S WCI  22
CUSTER         SUNNY     56  29  35 SW7       29.96F
ELLSWORTH AFB  SUNNY     54  34  47 S9        29.87F
PHILIP         SUNNY     43  33  68 E7        29.92F
PINE RIDGE     SUNNY     46  36  68 CALM      29.93F
SPEARFISH      FAIR      57  36  44 E3        29.88F
WINNER         FAIR      49  34  56 SE8       29.99S
$$

SDZ004>011-016>023-039-040-281600-
NORTHEAST SOUTH DAKOTA

CITY           SKY/WX    TMP DP  RH WIND       PRES   REMARKS
ABERDEEN       PTSUNNY   35  27  72 S15       30.05F WCI  25
WATERTOWN      CLOUDY    30  25  81 S16       30.08F WCI  19
SISSETON         N/A     29  26  89 S15       30.11F WCI  18
$$

SDZ017-020-022-023-036>040-048>070-281600-
SOUTHEAST SOUTH DAKOTA

CITY           SKY/WX    TMP DP  RH WIND       PRES   REMARKS
SIOUX FALLS    MOSUNNY   35  26  69 S13       30.12F WCI  26
HURON          SUNNY     34  26  72 S16       30.07F WCI  24
MITCHELL       SUNNY     35  27  72 S20       30.09F WCI  24
YANKTON        SUNNY     36  27  69 SE16      30.13S
$$

ABBREVIATIONS USED IN REMARKS
   TC - TEMPERATURE IN CELSIUS
  WCI - WIND CHILL INDEX
   HX - HEAT INDEX
  VSB - VISIBILITY



USA.gov is the U.S. government's official web portal to all federal, state and local government web resources and services.